WetterOnline ( http://www.wetteronline.de )

Wetter aktuell Mühldorf

Aktuelles Wetter: Mühldorf am Inn (410m)

6-stündlich | Neueste Meldungen
Ortszeit Temperatur Wetter
So, 19.08. 20:00 25.5° C fast wolkenlos
So, 19.08. 14:00 29.1° C leicht bewölkt
So, 19.08. 8:00 17.7° C wolkenlos
So, 19.08. 2:00 15.2° C wolkenlos
Sa, 18.08. 20:00 24.4° C leicht bewölkt
Sa, 18.08. 14:00 26.6° C leicht bewölkt
Sa, 18.08. 8:00 17.4° C leicht bewölkt
Sa, 18.08. 2:00 14.7° C bewölkt
Ortszeit Temperatur Wetter
So, 19.08. 21:00 20.4° C fast wolkenlos
So, 19.08. 20:50 20.4° C fast wolkenlos
So, 19.08. 20:40 21.3° C fast wolkenlos
So, 19.08. 20:30 22.5° C leicht bewölkt
So, 19.08. 20:20 22.5° C leicht bewölkt
So, 19.08. 20:10 23.8° C leicht bewölkt
So, 19.08. 20:00 25.5° C fast wolkenlos
So, 19.08. 19:30 27.6° C wolkenlos
So, 19.08. 19:00 29.8° C wolkenlos
So, 19.08. 18:30 29.9° C wolkenlos
So, 19.08. 18:00 30.2° C wolkenlos
Ortszeit Relative Feuchte Sichtweite
So, 19.08. 20:00 53% 12 km
So, 19.08. 14:00 31% 21 km
So, 19.08. 8:00 78% 8 km
So, 19.08. 2:00 93% 12 km
Sa, 18.08. 20:00 58% 23 km
Sa, 18.08. 14:00 43% 16 km
Sa, 18.08. 8:00 75% 22 km
Sa, 18.08. 2:00 90% 20 km
Ortszeit Relative Feuchte Sichtweite
So, 19.08. 21:00 73% 27 km
So, 19.08. 20:50 73% -
So, 19.08. 20:40 69% -
So, 19.08. 20:30 63% 30 km
So, 19.08. 20:20 63% -
So, 19.08. 20:10 56% -
So, 19.08. 20:00 53% 12 km
So, 19.08. 19:30 46% 21 km
So, 19.08. 19:00 32% 24 km
So, 19.08. 18:30 31% 35 km
So, 19.08. 18:00 33% 25 km
Ortszeit Niederschlagsmenge Niederschlagsart
So, 19.08. 20:00 0.0 l/m2 in 12 Std. -
So, 19.08. 14:00 0.0 l/m2 in 6 Std. -
So, 19.08. 8:00 0.0 l/m2 in 12 Std. -
So, 19.08. 2:00 0.0 l/m2 in 6 Std. -
Sa, 18.08. 20:00 0.0 l/m2 in 12 Std. -
Sa, 18.08. 14:00 0.0 l/m2 in 6 Std. -
Sa, 18.08. 8:00 0.0 l/m2 in 12 Std. -
Sa, 18.08. 2:00 0.0 l/m2 in 6 Std. -
Ortszeit Niederschlagsmenge Niederschlagsart
So, 19.08. 21:00 0.0 l/m2 in 1 Std. -
So, 19.08. 20:50 keine Meldung -
So, 19.08. 20:40 keine Meldung -
So, 19.08. 20:30 0.0 l/m2 in 1 Std. -
So, 19.08. 20:20 keine Meldung -
So, 19.08. 20:10 keine Meldung -
So, 19.08. 20:00 0.0 l/m2 in 1 Std. -
So, 19.08. 19:30 0.0 l/m2 in 1 Std. -
So, 19.08. 19:00 0.0 l/m2 in 1 Std. -
So, 19.08. 18:30 0.0 l/m2 in 1 Std. -
So, 19.08. 18:00 0.0 l/m2 in 1 Std. -
Ortszeit Stärke Spitze Richtung
km/h Bft. km/h Grad Sektor
So, 19.08. 20:00 2 1 20 340° N
So, 19.08. 14:00 7 2 14 90° O
So, 19.08. 8:00 2 1 7 110° O
So, 19.08. 2:00 4 1 7 320° NW
Sa, 18.08. 20:00 6 1 22 300° NW
Sa, 18.08. 14:00 11 2 22 270° W
Sa, 18.08. 8:00 4 1 7 260° W
Sa, 18.08. 2:00 4 1 11 290° W
Ortszeit Stärke Spitze Richtung
km/h Bft. km/h Grad Sektor
So, 19.08. 21:00 4 1 4 310° NW
So, 19.08. 20:50 4 1 - 310° NW
So, 19.08. 20:40 4 1 - 310° NW
So, 19.08. 20:30 0 0 4 - -
So, 19.08. 20:20 2 1 - 320° NW
So, 19.08. 20:10 0 0 - 360° N
So, 19.08. 20:00 2 1 6 340° N
So, 19.08. 19:30 0 0 4 - -
So, 19.08. 19:00 2 1 13 100° O
So, 19.08. 18:30 6 1 13 100° O
So, 19.08. 18:00 9 2 15 60° NO
Ortszeit Untergrenze Bedeckung Gattung
total tief tief mittel hoch
So, 19.08. 20:00 10500 m 2/8 0/8 - - -
So, 19.08. 14:00 1800 m 7/8 1/8 - - -
So, 19.08. 8:00 - 0/8 0/8 - - -
So, 19.08. 2:00 - 0/8 0/8 - - -
Sa, 18.08. 20:00 4200 m 3/8 3/8 - - -
Sa, 18.08. 14:00 10500 m 6/8 0/8 - - -
Sa, 18.08. 8:00 2700 m 2/8 2/8 - - -
Sa, 18.08. 2:00 2400 m 8/8 4/8 - - -
Ortszeit Bedeckungsgrad in Achtel und Wolkenuntergrenze
So, 19.08. 21:00 1(10500m)
So, 19.08. 20:50 1(10500m)
So, 19.08. 20:40 2(10500m)
So, 19.08. 20:30 1(10500m) 6(10500m)
So, 19.08. 20:20 1(10500m) 6(10500m)
So, 19.08. 20:10 1(10500m) 4(10500m)
So, 19.08. 20:00 2(10500m) 5(10500m)
So, 19.08. 19:30 keine Wolken
So, 19.08. 19:00 keine Wolken
So, 19.08. 18:30 keine Wolken
So, 19.08. 18:00 keine Wolken
Ortszeit Luftdruck NN (hPa) Tendenz (hPa in 3 Std.)
So, 19.08. 20:00 1016 - 0,6
So, 19.08. 14:00 1018 - 1,4
So, 19.08. 8:00 1021 + 0,4
So, 19.08. 2:00 1021 + 0,2
Sa, 18.08. 20:00 1018 0,0
Sa, 18.08. 14:00 1018 - 0,6
Sa, 18.08. 8:00 1020 + 1,2
Sa, 18.08. 2:00 1018 + 1,3
Ortszeit Luftdruck NN (hPa) Tendenz (hPa in 3 Std.)
So, 19.08. 21:00 1017 + 0,2
So, 19.08. 20:50 1017 keine Meldung
So, 19.08. 20:40 1017 keine Meldung
So, 19.08. 20:30 1017 - 0,3
So, 19.08. 20:20 1017 keine Meldung
So, 19.08. 20:10 1017 keine Meldung
So, 19.08. 20:00 1016 - 0,6
So, 19.08. 19:30 1016 - 1,0
So, 19.08. 19:00 1016 - 1,1
So, 19.08. 18:30 1016 - 1,4
So, 19.08. 18:00 1016 - 1,4
Ortszeit Schneehöhe (cm)
So, 19.08. 20:00 -
So, 19.08. 14:00 -
So, 19.08. 8:00 -
So, 19.08. 2:00 -
Sa, 18.08. 20:00 -
Sa, 18.08. 14:00 -
Sa, 18.08. 8:00 -
Sa, 18.08. 2:00 -
Ortszeit Schneehöhe (cm)
So, 19.08. 21:00 -
So, 19.08. 20:50 -
So, 19.08. 20:40 -
So, 19.08. 20:30 -
So, 19.08. 20:20 -
So, 19.08. 20:10 -
So, 19.08. 20:00 -
So, 19.08. 19:30 -
So, 19.08. 19:00 -
So, 19.08. 18:30 -
So, 19.08. 18:00 -
Link zu dieser Seite / Seite empfehlen

Das Wetter in ...